Regional Weather Roundup
Issued by NWS State College, PA

Home | Current Version | Previous Version | Graphics & Text | Print | Product List | Glossary Off
Versions: 1 2 3 4 5 6 7 8 9 10 11 12 13 14 15 16 17 18 19 20 21 22 23 24 25 26 27 28 29 30 31 32 33 34 35 36 37 38 39 40 41 42 43 44 45 46 47 48 49 50

000
ASUS41 KCTP 240710
RWRCTP

REGIONAL WEATHER ROUNDUP
NATIONAL WEATHER SERVICE STATE COLLEGE PA
300 AM EDT SUN MAY 24 2015

Note: "fair" indicates few or no clouds below 12,000 feet with no
significant weather and/or obstructions to visibility.

* = STATION THAT DOES NOT REPORT PRECIPITATION /E.G. RAIN...SNOW...ETC/
    THUNDER OR FOG.

PAZ002>004-007>009-013>016-020>023-029>032-240800-
WESTERN PENNSYLVANIA

CITY           SKY/WX    TMP DP  RH WIND       PRES   REMARKS
ERIE           CLEAR     52  36  54 S5        30.29F
MEADVILLE      CLEAR     53  36  52 S3        30.31F
FRANKLIN*      CLEAR     48  34  57 CALM      30.34S
NEW CASTLE     FAIR      44  42  93 CALM      30.33F
BEAVER COUNTY  NOT AVBL
BUTLER*        CLEAR     43  39  87 NE5       30.35S
PITTSBURGH INT CLEAR     51  42  71 CALM      30.32S
PITTSBURGH     CLEAR     51  41  68 S7        30.32F
INDIANA*       PTCLDY    45  41  87 E3        30.38S
LATROBE        CLEAR     43  43 100 CALM      30.36F
WASHINGTON CO* CLEAR     43  37  81 CALM      30.35S
$$

PAZ004>006-010>012-017>019-024>028-033>037-041-042-045-046-049>053-240800-
CENTRAL PENNSYLVANIA

CITY           SKY/WX    TMP DP  RH WIND       PRES   REMARKS
BRADFORD       CLEAR     35  32  88 CALM      30.34S
DUBOIS         CLEAR     46  36  68 CALM      30.33F
CLEARFIELD     CLEAR     41  34  76 N5        30.36S
JOHNSTOWN      CLEAR     51  34  52 SW6       30.36F
ALTOONA        CLEAR     48  36  63 CALM      30.37S
STATE COLLEGE  CLEAR     47  34  60 CALM      30.36S
WILLIAMSPORT   CLEAR     43  38  82 CALM      30.36R
SELINSGROVE    CLEAR     40  39  97 CALM      30.37R
FT INDIANTOWN  CLEAR     43  39  86 CALM      30.38R
CAPITAL CITY   CLEAR     49  41  74 CALM      30.37S
HARRISBURG     PTCLDY    52  43  71 E7        30.37R
YORK           CLEAR     44  42  93 CALM      30.37F
$$

PAZ038>040-043-044-047-048-054-055-060>062-067>071-240800-
EASTERN PENNSYLVANIA

CITY           SKY/WX    TMP DP  RH WIND       PRES   REMARKS
SCRANTON       CLEAR     44  34  67 CALM      30.35R
MOUNT POCONO   CLEAR     48  32  53 W9        30.35S
ALLENTOWN      CLEAR     43  36  76 CALM      30.37R
QUAKERTOWN*    SUNNY     39  37  93 CALM      30.37F
READING        CLEAR     49  40  71 CALM      30.37R
LANCASTER      CLEAR     49  40  71 CALM      30.37S
COATESVILLE    SUNNY     52  41  66 W5        30.38S
POTTSTOWN      CLEAR     45  39  79 CALM      30.38S
BLUE BELL      CLEAR     43  39  87 CALM      30.37S
DOYLESTOWN     CLEAR     49  36  61 S6        30.36S
WILLOW GROVE   NOT AVBL
NORTH PHILA    CLEAR     50  39  66 CALM      30.39S
PHILADELPHIA   PTCLDY    55  46  71 S8        30.39R
$$


USA.gov is the U.S. government's official web portal to all federal, state and local government web resources and services.